Regional Weather Roundup
Issued by NWS

Home | Current Version | Previous Version | Text Only | Print | Product List | Glossary Off
Versions: 1 2 3 4 5 6 7 8 9 10 11 12 13 14 15 16 17 18 19 20 21 22 23 24 25 26 27 28 29 30 31 32 33 34 35 36 37 38 39 40 41 42 43 44 45 46 47 48 49 50

000
ASUS43 KLOT 020800
RWRIL

ILLINOIS REGIONAL WEATHER ROUNDUP
NATIONAL WEATHER SERVICE CHICAGO/ROMEOVILLE IL
200 AM CST MON MAR 02 2015

NOTE: "FAIR" INDICATES FEW OR NO CLOUDS BELOW 12,000 FEET WITH NO
SIGNIFICANT WEATHER AND/OR OBSTRUCTIONS TO VISIBILITY.

* THESE STATIONS ARE NOT UNDER NWS QUALITY CONTROL. THEY ALSO MAY NOT
  REPORT WEATHER SUCH AS PRECIPITATION OR FOG.

ILZ001-002-007-009-015-016-024-020900-
NORTHWEST ILLINOIS

CITY           SKY/WX    TMP DP  RH WIND       PRES   REMARKS
MOLINE         PTCLDY     7   2  80 W3        30.47R
STERLING*      PTCLDY    10   7  85 NW7       30.44S WCI   0
$$

ILZ003-004-008-010-011-017-018-020900-
NORTH CENTRAL ILLINOIS

CITY           SKY/WX    TMP DP  RH WIND       PRES   REMARKS
ROCKFORD       CLEAR     15   7  70 W7        30.43R WCI   5
$$

ILZ005-006-012>014-019>023-020900-
NORTHEAST ILLINOIS

CITY           SKY/WX    TMP DP  RH WIND       PRES   REMARKS
CHICAGO-OHARE  PTCLDY    17   8  67 W9        30.39R WCI   6
CHICAGO-MIDWAY CLEAR     19   9  65 W7        30.41R WCI  10
AURORA         CLEAR      8   2  76 W6        30.43R WCI  -2
WAUKEGAN       CLEAR     16   7  67 VRB5      30.38R WCI   9
DUPAGE AIRPORT CLEAR     14   7  73 W10       30.40R WCI   1
WHEELING       CLEAR     18   8  65 W6        30.41R WCI  10
NORTHERLY ISL    N/A     20  10  65 W12         N/A  WCI   8
$$

LMZ740>746-020900-
SOUTHERN LAKE MICHIGAN

STATION/POSITION SKY/WX   TEMP    WIND        PRES    VSBY  WAVE
                          AIR SEA DIR/SP/G                  HT/PER
                          (F)     (DEG/KT/KT) (MB)    (MI)  (FT/S)
WAUKEGAN HARBOR            18     260/  9/ 15   N/A
HARRISON CRIB              21     280/ 19/ 22   N/A
BURNHAM HARBOR             20     300/  7/ 13   N/A
CALUMET HARBOR             19     270/  5/  9 1028.4R
MICHIGAN CITY              19     250/ 10/ 12   N/A
$$

ILZ025>027-034>036-040-047-049-050-058-095>099-020900-
WEST-CENTRAL ILLINOIS

CITY           SKY/WX    TMP DP  RH WIND       PRES   REMARKS
QUINCY         CLOUDY    23  17  78 CALM      30.50R
$$

ILZ028>032-037-038-041>044-048-051>054-059>061-020900-
CENTRAL ILLINOIS

CITY           SKY/WX    TMP DP  RH WIND       PRES   REMARKS
DECATUR        MOCLDY    21  16  81 NW7       30.48R WCI  12
PEORIA         CLOUDY    21  13  71 CALM      30.49R
SPRINGFIELD    MOCLDY    13   9  84 CALM      30.50S
TAYLORVILLE    NOT AVBL
$$

ILZ033-039-045-046-055>057-062-063-020900-
EAST-CENTRAL ILLINOIS

CITY           SKY/WX    TMP DP  RH WIND       PRES   REMARKS
CHAMPAIGN      MOCLDY    12   9  87 W6        30.47R WCI   3
MATTOON        PTCLDY    20  14  77 NW12      30.47R WCI   8
$$

ILZ079-100>102-020900-
SOUTHWEST ILLINOIS

CITY           SKY/WX    TMP DP  RH WIND       PRES   REMARKS
BELLEVILLE     MOCLDY    15  15  98 NW2       30.51S
CAHOKIA*       MOCLDY    14  12  92 CALM      30.53R FOG
$$

ILZ064>066-069>071-074>076-080>082-084>086-088>090-092>094-020900-
SOUTH-CENTRAL ILLINOIS

CITY           SKY/WX    TMP DP  RH WIND       PRES   REMARKS
CARBONDALE     PTCLDY    26  22  84 N7        30.51R WCI  18
MT. VERNON     PTCLDY    10   5  79 CALM      30.50R
$$

ILZ067-068-072-073-078-083-087-091-020900-
SOUTHEAST ILLINOIS

CITY           SKY/WX    TMP DP  RH WIND       PRES   REMARKS
LAWRENCEVILLE  PTCLDY    19  15  84 NW5       30.50R WCI  12
$$

ABBREVIATIONS USED IN REMARKS
   TC - TEMPERATURE IN CELSIUS
  WCI - WIND CHILL INDEX
   HX - HEAT INDEX
  VSB - VISIBILITY
$$




USA.gov is the U.S. government's official web portal to all federal, state and local government web resources and services.